KG6SIB Weather Reports


Display with metric or nautical units.
time (UTC)temp
F
wind
direction
speed
MPH
gust
MPH
rain 1hr
in
rain 24hr
in
rain mn
in
humidity
%
barometer
mb
20180424085213 49 30 8.0 8.0 0.00 0.00 0.00 45 1016.8
20180424084714 50 46 5.0 8.0 0.00 0.00 0.00 44 1016.8
20180424084214 49 26 5.0 8.0 0.00 0.00 0.00 44 1016.8
20180424083713 49 46 8.0 8.0 0.00 0.00 0.00 44 1016.9
20180424083213 49 38 5.0 8.0 0.00 0.00 0.00 45 1017.0
20180424082712 49 23 6.0 10.0 0.00 0.00 0.00 45 1017.1
20180424082213 49 46 5.0 10.0 0.00 0.00 0.00 46 1017.1
20180424081713 48 30 5.0 8.0 0.00 0.00 0.00 46 1016.8
20180424081212 49 23 5.0 8.0 0.00 0.00 0.00 46 1017.1
20180424080715 49 37 6.0 9.0 0.00 0.00 0.00 45 1017.1
20180424080213 48 23 7.0 9.0 0.00 0.00 0.00 46 1016.8
20180424075711 49 31 8.0 9.0 0.00 0.00 0.00 45 1017.2
20180424075212 49 27 6.0 8.0 0.00 0.00 0.00 45 1017.1
20180424074712 49 34 7.0 9.0 0.00 0.00 0.00 45 1017.2
20180424074212 49 37 6.0 10.0 0.00 0.00 0.00 45 1017.2
20180424073711 49 23 7.0 10.0 0.00 0.00 0.00 46 1017.2
20180424073212 49 31 8.0 9.0 0.00 0.00 0.00 44 1017.2
20180424072712 49 25 6.0 8.0 0.00 0.00 0.00 45 1017.3
20180424072214 49 25 6.0 8.0 0.00 0.00 0.00 45 1017.4
20180424071713 49 33 6.0 8.0 0.00 0.00 0.00 45 1017.4
20180424071211 49 34 7.0 8.0 0.00 0.00 0.00 46 1017.4
20180424070711 49 34 7.0 8.0 0.00 0.00 0.00 47 1017.4
20180424070211 49 35 5.0 8.0 0.00 0.00 0.00 47 1017.4
20180424065711 49 45 7.0 8.0 0.00 0.00 0.00 45 1017.1
20180424065211 49 36 7.0 8.0 0.00 0.00 0.00 47 1017.2
20180424064710 49 49 8.0 8.0 0.00 0.00 0.00 48 1017.2
20180424064210 48 47 6.0 9.0 0.00 0.00 0.00 49 1017.3
20180424063709 48 53 7.0 9.0 0.00 0.00 0.00 50 1017.3
20180424063210 48 39 8.0 8.0 0.00 0.00 0.00 51 1017.3
20180424062712 48 18 7.0 9.0 0.00 0.00 0.00 52 1017.3
20180424062210 49 32 8.0 9.0 0.00 0.00 0.00 52 1017.3
20180424061709 49 35 6.0 8.0 0.00 0.00 0.00 52 1017.3
20180424061209 49 27 7.0 8.0 0.00 0.00 0.00 54 1017.2
20180424060708 49 21 7.0 8.0 0.00 0.00 0.00 54 1017.2
20180424060210 48 36 7.0 8.0 0.00 0.00 0.00 56 1017.2
20180424055710 49 23 5.0 8.0 0.00 0.00 0.00 58 1017.3
20180424055209 49 44 7.0 8.0 0.00 0.00 0.00 58 1017.3
20180424054709 49 13 6.0 8.0 0.00 0.00 0.00 59 1017.2
20180424054210 49 32 7.0 8.0 0.00 0.00 0.00 60 1017.2
20180424053708 49 23 7.0 8.0 0.00 0.00 0.00 60 1017.2
20180424053208 49 23 7.0 8.0 0.00 0.00 0.00 61 1017.2
20180424052707 50 43 5.0 8.0 0.00 0.00 0.00 62 1017.5
20180424052207 50 37 5.0 8.0 0.00 0.00 0.00 62 1017.4
20180424051708 50 34 7.0 8.0 0.00 0.00 0.00 62 1017.3
20180424051208 50 25 7.0 8.0 0.00 0.00 0.00 62 1017.4
20180424050710 51 41 5.0 7.0 0.00 0.00 0.00 63 1017.3
20180424050207 50 28 6.0 8.0 0.00 0.00 0.00 63 1017.3
20180424045708 50 65 6.0 8.0 0.00 0.00 0.00 63 1017.0
20180424045209 50 32 5.0 8.0 0.00 0.00 0.00 62 1016.8
20180424044707 51 27 7.0 8.0 0.00 0.00 0.00 62 1017.2
20180424044208 51 19 6.0 6.0 0.00 0.00 0.00 63 1017.2
20180424043708 52 43 6.0 6.0 0.00 0.00 0.00 63 1017.2
20180424043208 52 30 3.0 6.0 0.00 0.00 0.00 62 1017.2
20180424042708 52 41 3.0 6.0 0.00 0.00 0.00 62 1017.1
20180424042208 53 53 4.0 6.0 0.00 0.00 0.00 62 1017.1
20180424041708 53 34 4.0 7.0 0.00 0.00 0.00 62 1017.2
20180424041209 54 28 4.0 7.0 0.00 0.00 0.00 62 1017.3
20180424040708 54 30 4.0 6.0 0.00 0.00 0.00 63 1017.1
20180424040209 54 30 4.0 5.0 0.00 0.00 0.00 63 1017.1
20180424035707 54 35 2.0 5.0 0.00 0.00 0.00 63 1017.0
20180424035207 54 31 4.0 5.0 0.00 0.00 0.00 63 1016.8
20180424034707 54 28 5.0 5.0 0.00 0.00 0.00 62 1016.9
20180424034207 54 29 4.0 5.0 0.00 0.00 0.00 61 1016.9
20180424033707 55 30 3.0 5.0 0.00 0.00 0.00 61 1016.8
20180424033208 55 49 4.0 5.0 0.00 0.00 0.00 60 1016.7
20180424032707 55 41 2.0 5.0 0.00 0.00 0.00 60 1016.7
20180424032207 56 25 4.0 5.0 0.00 0.00 0.00 59 1016.9
20180424031706 56 32 3.0 5.0 0.00 0.00 0.00 58 1016.8
20180424031206 57 27 3.0 4.0 0.00 0.00 0.00 57 1016.8
20180424030706 58 27 2.0 2.0 0.00 0.00 0.00 55 1016.9
20180424030205 60 251 0.0 1.0 0.00 0.00 0.00 55 1017.1
20180424025706 60 251 0.0 1.0 0.00 0.00 0.00 54 1016.4
20180424025204 60 251 0.0 1.0 0.00 0.00 0.00 54 1016.4
20180424024705 61 252 0.0 1.0 0.00 0.00 0.00 54 1016.6
20180424024204 61 207 0.0 2.0 0.00 0.00 0.00 53 1016.5
20180424023705 62 237 0.0 2.0 0.00 0.00 0.00 52 1016.5
20180424023204 62 233 0.0 2.0 0.00 0.00 0.00 51 1016.3
20180424022705 62 272 1.0 3.0 0.00 0.00 0.00 50 1016.4
20180424022204 63 255 1.0 3.0 0.00 0.00 0.00 49 1016.7
20180424021704 63 278 0.0 2.0 0.00 0.00 0.00 49 1016.7
20180424021204 64 257 1.0 3.0 0.00 0.00 0.00 48 1016.7
20180424020703 64 246 0.0 7.0 0.00 0.00 0.00 47 1016.7
20180424020203 65 300 2.0 7.0 0.00 0.00 0.00 46 1016.9
20180424015703 65 193 3.0 7.0 0.00 0.00 0.00 45 1014.9
20180424015203 66 229 4.0 6.0 0.00 0.00 0.00 43 1014.9
20180424014703 67 251 2.0 8.0 0.00 0.00 0.00 42 1015.2
20180424014202 67 233 0.0 9.0 0.00 0.00 0.00 41 1015.1
20180424013702 68 238 3.0 9.0 0.00 0.00 0.00 39 1015.0
20180424013202 69 224 4.0 10.0 0.00 0.00 0.00 39 1015.4
20180424012703 69 217 2.0 10.0 0.00 0.00 0.00 38 1015.2
20180424012203 69 219 7.0 9.0 0.00 0.00 0.00 38 1015.2
20180424011703 69 243 5.0 9.0 0.00 0.00 0.00 38 1015.2
20180424011202 69 229 6.0 10.0 0.00 0.00 0.00 37 1015.3
20180424010701 69 206 5.0 10.0 0.00 0.00 0.00 37 1015.2
20180424010202 70 206 3.0 8.0 0.00 0.00 0.00 36 1015.2
20180424005701 70 207 3.0 9.0 0.00 0.00 0.00 36 1015.0
20180424005201 71 218 4.0 10.0 0.00 0.00 0.00 36 1015.0
20180424004702 71 231 4.0 10.0 0.00 0.00 0.00 35 1015.1
20180424004202 71 228 4.0 11.0 0.00 0.00 0.00 34 1015.0
20180424003701 72 249 4.0 14.0 0.00 0.00 0.00 34 1015.3
20180424003202 72 206 11.0 14.0 0.00 0.00 0.00 33 1015.3
20180424002701 73 238 6.0 9.0 0.00 0.00 0.00 32 1015.3
20180424002200 73 269 3.0 11.0 0.00 0.00 0.00 31 1015.1
20180424001701 73 247 7.0 13.0 0.00 0.00 0.00 30 1015.1
20180424001203 73 251 10.0 13.0 0.00 0.00 0.00 31 1015.1
20180424000700 73 274 6.0 10.0 0.00 0.00 0.00 31 1015.1
20180424000200 74 223 3.0 10.0 0.00 0.00 0.00 31 1015.4
20180423235659 74 275 1.0 11.0 0.00 0.00 0.00 31 1015.4
20180423235200 74 256 3.0 11.0 0.00 0.00 0.00 30 1015.4
20180423234659 74 264 8.0 11.0 0.00 0.00 0.00 32 1015.5
20180423234200 74 293 4.0 11.0 0.00 0.00 0.00 32 1015.5
20180423233659 73 203 4.0 11.0 0.00 0.00 0.00 31 1015.1
20180423233200 73 241 10.0 11.0 0.00 0.00 0.00 31 1015.1
20180423232659 73 287 5.0 12.0 0.00 0.00 0.00 30 1015.2
20180423232158 73 226 2.0 12.0 0.00 0.00 0.00 32 1015.2
20180423231658 74 224 7.0 12.0 0.00 0.00 0.00 31 1015.4
20180423231159 74 283 3.0 12.0 0.00 0.00 0.00 31 1015.4
20180423230700 75 256 10.0 14.0 0.00 0.00 0.00 31 1015.4
20180423230200 75 256 8.0 14.0 0.00 0.00 0.00 30 1015.4
20180423225657 75 274 5.0 12.0 0.00 0.00 0.00 30 1015.7
20180423225158 75 238 6.0 12.0 0.00 0.00 0.00 30 1015.8
20180423224657 75 281 9.0 16.0 0.00 0.00 0.00 29 1015.7
20180423224157 76 255 4.0 16.0 0.00 0.00 0.00 30 1015.7
20180423223659 77 271 11.0 14.0 0.00 0.00 0.00 32 1016.0
20180423223159 77 290 3.0 10.0 0.00 0.00 0.00 31 1015.9
20180423222657 77 278 1.0 11.0 0.00 0.00 0.00 31 1016.0
20180423222157 77 203 3.0 11.0 0.00 0.00 0.00 32 1016.1
20180423221657 77 240 5.0 15.0 0.00 0.00 0.00 33 1016.2
20180423221156 77 229 5.0 15.0 0.00 0.00 0.00 33 1016.1
20180423220656 77 199 4.0 12.0 0.00 0.00 0.00 32 1016.2
20180423220158 77 205 7.0 12.0 0.00 0.00 0.00 32 1016.2
20180423215657 77 224 12.0 12.0 0.00 0.00 0.00 31 1015.9
20180423215156 77 245 5.0 11.0 0.00 0.00 0.00 33 1015.9
20180423214657 76 298 5.0 14.0 0.00 0.00 0.00 31 1015.8
20180423214155 76 273 6.0 14.0 0.00 0.00 0.00 31 1015.9
20180423213656 76 252 0.0 11.0 0.00 0.00 0.00 31 1015.9
20180423213155 76 281 9.0 11.0 0.00 0.00 0.00 31 1015.9
20180423212655 76 274 3.0 12.0 0.00 0.00 0.00 30 1016.1
20180423212156 76 236 4.0 12.0 0.00 0.00 0.00 28 1016.0
20180423211655 77 208 8.0 10.0 0.00 0.00 0.00 29 1016.3
20180423211155 77 303 8.0 14.0 0.00 0.00 0.00 29 1016.4
20180423210655 77 239 8.0 14.0 0.00 0.00 0.00 26 1016.3
20180423210224 77 233 8.0 11.0 0.00 0.00 0.00 29 1016.3
20180423205654 77 238 5.0 10.0 0.00 0.00 0.00 27 1016.3
20180423205154 77 295 0.0 8.0 0.00 0.00 0.00 25 1016.4
20180423204656 76 295 1.0 12.0 0.00 0.00 0.00 26 1016.4
20180423204154 76 242 4.0 12.0 0.00 0.00 0.00 24 1016.4
20180423203655 75 281 7.0 10.0 0.00 0.00 0.00 22 1016.1
20180423203154 75 259 3.0 10.0 0.00 0.00 0.00 22 1016.2
20180423202654 75 214 2.0 10.0 0.00 0.00 0.00 22 1016.1
20180423202153 76 291 4.0 10.0 0.00 0.00 0.00 23 1016.4
20180423201653 76 302 5.0 13.0 0.00 0.00 0.00 22 1016.4
20180423201153 76 293 4.0 13.0 0.00 0.00 0.00 22 1016.4
20180423200655 77 244 4.0 11.0 0.00 0.00 0.00 23 1016.5
20180423200223 77 217 9.0 13.0 0.00 0.00 0.00 22 1016.4
20180423195653 77 288 6.0 13.0 0.00 0.00 0.00 23 1016.9
20180423195152 76 287 6.0 12.0 0.00 0.00 0.00 24 1016.9
20180423194654 76 225 7.0 12.0 0.00 0.00 0.00 23 1016.8
20180423194153 76 273 5.0 12.0 0.00 0.00 0.00 23 1016.8
20180423193653 77 278 9.0 11.0 0.00 0.00 0.00 23 1016.9
20180423193153 76 213 3.0 14.0 0.00 0.00 0.00 24 1017.1
20180423192651 76 273 5.0 14.0 0.00 0.00 0.00 22 1017.0
20180423192154 77 253 10.0 10.0 0.00 0.00 0.00 22 1017.0
20180423191653 76 220 6.0 12.0 0.00 0.00 0.00 23 1017.1
20180423191152 76 269 5.0 12.0 0.00 0.00 0.00 23 1017.1
20180423190651 76 218 8.0 11.0 0.00 0.00 0.00 22 1017.1
20180423190228 76 257 6.0 11.0 0.00 0.00 0.00 22 1017.2
20180423185652 76 280 2.0 12.0 0.00 0.00 0.00 22 1017.2
20180423185152 76 306 3.0 12.0 0.00 0.00 0.00 22 1017.3
20180423184720 76 281 6.0 12.0 0.00 0.00 0.00 21 1017.3
20180423184221 75 252 6.0 11.0 0.00 0.00 0.00 22 1017.4
20180423183722 75 281 6.0 11.0 0.00 0.00 0.00 22 1017.5
20180423183221 76 246 3.0 11.0 0.00 0.00 0.00 21 1017.4
20180423182720 75 252 2.0 11.0 0.00 0.00 0.00 22 1017.6
20180423182220 75 286 6.0 12.0 0.00 0.00 0.00 23 1017.6
20180423181720 75 229 6.0 12.0 0.00 0.00 0.00 22 1017.6
20180423181220 75 263 2.0 12.0 0.00 0.00 0.00 21 1017.6
20180423180720 76 288 10.0 12.0 0.00 0.00 0.00 21 1017.6
20180423180220 76 236 9.0 11.0 0.00 0.00 0.00 21 1017.6
20180423175720 76 181 3.0 12.0 0.00 0.00 0.00 21 1017.6
20180423175220 75 205 7.0 12.0 0.00 0.00 0.00 21 1017.4
20180423174719 75 282 7.0 12.0 0.00 0.00 0.00 21 1017.5
20180423174219 74 264 7.0 12.0 0.00 0.00 0.00 21 1017.5
20180423173719 74 295 4.0 11.0 0.00 0.00 0.00 22 1017.4
20180423173218 74 245 5.0 11.0 0.00 0.00 0.00 21 1017.4
20180423172718 74 283 10.0 12.0 0.00 0.00 0.00 20 1017.4
20180423172219 74 213 2.0 14.0 0.00 0.00 0.00 20 1017.4
20180423171718 74 253 4.0 14.0 0.00 0.00 0.00 22 1017.5
20180423171218 74 244 3.0 11.0 0.00 0.00 0.00 21 1017.4
20180423170718 74 280 4.0 10.0 0.00 0.00 0.00 21 1017.4
20180423170219 73 262 6.0 10.0 0.00 0.00 0.00 21 1017.1
20180423165717 73 327 4.0 11.0 0.00 0.00 0.00 22 1017.6
20180423165217 73 305 5.0 11.0 0.00 0.00 0.00 21 1017.6
20180423164718 73 248 4.0 11.0 0.00 0.00 0.00 21 1017.6
20180423164221 73 233 3.0 10.0 0.00 0.00 0.00 21 1017.5
20180423163717 73 325 3.0 7.0 0.00 0.00 0.00 22 1017.6
20180423163217 73 176 2.0 13.0 0.00 0.00 0.00 22 1017.5
20180423162717 72 322 3.0 13.0 0.00 0.00 0.00 21 1017.3
20180423162217 73 255 7.0 8.0 0.00 0.00 0.00 21 1017.4
20180423161716 73 161 0.0 6.0 0.00 0.00 0.00 22 1017.4
20180423161216 72 334 2.0 6.0 0.00 0.00 0.00 22 1017.2
20180423160717 72 49 0.0 6.0 0.00 0.00 0.00 22 1017.2
20180423160215 72 281 3.0 6.0 0.00 0.00 0.00 22 1017.2
20180423155716 72 278 4.0 5.0 0.00 0.00 0.00 22 1017.1
20180423155216 72 252 1.0 6.0 0.00 0.00 0.00 23 1017.1
20180423154717 72 305 1.0 7.0 0.00 0.00 0.00 23 1017.1
20180423154217 71 35 2.0 7.0 0.00 0.00 0.00 21 1016.7
20180423153715 71 303 5.0 6.0 0.00 0.00 0.00 23 1016.8
20180423153216 71 48 1.0 8.0 0.00 0.00 0.00 21 1016.6
20180423152715 70 353 0.0 8.0 0.00 0.00 0.00 21 1016.6
20180423152215 70 275 4.0 6.0 0.00 0.00 0.00 22 1016.6
20180423151715 70 329 1.0 5.0 0.00 0.00 0.00 22 1016.5
20180423151214 69 353 1.0 4.0 0.00 0.00 0.00 22 1016.3
20180423150714 68 233 0.0 3.0 0.00 0.00 0.00 27 1016.3
20180423150214 68 216 2.0 2.0 0.00 0.00 0.00 27 1016.3
20180423145714 67 259 0.0 2.0 0.00 0.00 0.00 26 1016.9
20180423145215 66 324 0.0 2.0 0.00 0.00 0.00 33 1016.7
20180423144713 65 124 0.0 3.0 0.00 0.00 0.00 30 1016.7
20180423144213 63 30 0.0 3.0 0.00 0.00 0.00 38 1016.5
20180423143715 61 63 1.0 4.0 0.00 0.00 0.00 40 1016.3
20180423143214 60 27 3.0 6.0 0.00 0.00 0.00 40 1016.0
20180423142715 58 43 1.0 6.0 0.00 0.00 0.00 42 1015.7
20180423142213 56 39 2.0 6.0 0.00 0.00 0.00 45 1015.5
20180423141713 54 28 1.0 8.0 0.00 0.00 0.00 45 1015.2
20180423141212 53 41 4.0 8.0 0.00 0.00 0.00 46 1015.1
20180423140713 52 24 6.0 8.0 0.00 0.00 0.00 46 1014.8
20180423140212 51 29 6.0 8.0 0.00 0.00 0.00 48 1014.8
20180423135712 50 35 8.0 8.0 0.00 0.00 0.00 49 1015.4
20180423135212 48 35 7.0 7.0 0.00 0.00 0.00 47 1015.1
20180423134712 48 35 7.0 7.0 0.00 0.00 0.00 47 1015.0
20180423134212 48 35 7.0 7.0 0.00 0.00 0.00 47 1015.0
20180423133712 48 35 7.0 7.0 0.00 0.00 0.00 47 1014.9
20180423133211 48 35 7.0 7.0 0.00 0.00 0.00 47 1014.9
20180423132712 48 35 7.0 7.0 0.00 0.00 0.00 47 1014.9
20180423132213 48 35 7.0 7.0 0.00 0.00 0.00 47 1014.9
20180423131712 48 35 7.0 7.0 0.00 0.00 0.00 47 1014.8
20180423131211 48 35 7.0 7.0 0.00 0.00 0.00 47 1014.8
20180423130713 48 35 7.0 7.0 0.00 0.00 0.00 47 1014.8
20180423130210 48 35 7.0 7.0 0.00 0.00 0.00 47 1014.8
20180423125711 48 35 7.0 7.0 0.00 0.00 0.00 47 1015.3
20180423125211 48 35 7.0 7.0 0.00 0.00 0.00 47 1015.3
20180423124710 48 35 7.0 7.0 0.00 0.00 0.00 47 1015.2
20180423124210 48 35 7.0 7.0 0.00 0.00 0.00 47 1015.3
20180423123712 48 35 7.0 7.0 0.00 0.00 0.00 47 1015.2
20180423123211 48 35 7.0 7.0 0.00 0.00 0.00 47 1015.3
20180423122709 48 35 7.0 7.0 0.00 0.00 0.00 47 1015.3
20180423122209 48 35 7.0 7.0 0.00 0.00 0.00 47 1015.3
20180423121710 48 35 7.0 7.0 0.00 0.00 0.00 47 1015.3
20180423121210 48 35 7.0 7.0 0.00 0.00 0.00 47 1015.3
20180423120709 48 35 7.0 9.0 0.00 0.00 0.00 47 1015.2
20180423120209 48 39 7.0 9.0 0.00 0.00 0.00 47 1015.2
20180423115709 48 44 6.0 9.0 0.00 0.00 0.00 47 1015.4
20180423115210 49 30 6.0 9.0 0.00 0.00 0.00 46 1015.3
20180423114709 50 28 7.0 8.0 0.00 0.00 0.00 45 1015.5
20180423114209 49 41 6.0 8.0 0.00 0.00 0.00 45 1015.2
20180423113709 50 25 7.0 8.0 0.00 0.00 0.00 44 1015.4
20180423113209 50 39 7.0 8.0 0.00 0.00 0.00 43 1015.4
20180423112708 50 35 7.0 8.0 0.00 0.00 0.00 44 1015.4
20180423112208 49 51 7.0 8.0 0.00 0.00 0.00 45 1015.1
20180423111707 50 34 5.0 7.0 0.00 0.00 0.00 45 1015.4
20180423111207 50 23 6.0 8.0 0.00 0.00 0.00 45 1015.3
20180423110709 50 30 6.0 8.0 0.00 0.00 0.00 46 1015.3
20180423110207 50 45 4.0 6.0 0.00 0.00 0.00 46 1015.2
20180423105707 50 50 5.0 8.0 0.00 0.00 0.00 46 1015.3
20180423105208 50 25 4.0 8.0 0.00 0.00 0.00 46 1015.3
20180423104708 50 28 6.0 9.0 0.00 0.00 0.00 46 1015.2
20180423104207 50 49 6.0 9.0 0.00 0.00 0.00 46 1015.3
20180423103707 49 40 3.0 7.0 0.00 0.00 0.00 45 1015.2
20180423103208 49 35 7.0 8.0 0.00 0.00 0.00 47 1015.2
20180423102709 49 53 6.0 8.0 0.00 0.00 0.00 48 1015.2
20180423102206 49 29 2.0 8.0 0.00 0.00 0.00 48 1015.3
20180423101706 48 43 7.0 7.0 0.00 0.00 0.00 49 1015.0
20180423101206 48 37 6.0 7.0 0.00 0.00 0.00 50 1015.1
20180423100706 48 51 5.0 8.0 0.00 0.00 0.00 50 1015.1
20180423100207 47 44 6.0 8.0 0.00 0.00 0.00 51 1015.0
20180423095707 47 32 6.0 7.0 0.00 0.00 0.00 51 1015.0
20180423095205 48 41 5.0 8.0 0.00 0.00 0.00 49 1015.4
20180423094705 47 42 6.0 8.0 0.00 0.00 0.00 51 1015.0
20180423094205 47 39 6.0 8.0 0.00 0.00 0.00 51 1015.1
20180423093705 47 30 6.0 8.0 0.00 0.00 0.00 51 1015.0
20180423093205 47 35 6.0 9.0 0.00 0.00 0.00 51 1015.1
20180423092705 47 30 6.0 9.0 0.00 0.00 0.00 51 1015.0
20180423092205 47 26 8.0 9.0 0.00 0.00 0.00 51 1015.0
20180423091705 47 32 8.0 8.0 0.00 0.00 0.00 50 1014.9
20180423091205 47 42 6.0 8.0 0.00 0.00 0.00 49 1015.0
20180423090705 48 34 7.0 9.0 0.00 0.00 0.00 49 1015.3
20180423090205 48 36 6.0 9.0 0.00 0.00 0.00 49 1015.2
20180423085704 48 23 8.0 9.0 0.00 0.00 0.00 49 1015.3